1998-067PN (43638 NORAD) Tracking and Keplerian Element Data

This shows tracking and keplerian element data for the satellite.

Feedback or suggestion? Click here.




ElementValue
Catalog43638
Name1998-067PN
Epoch Orbit4490
Epoch Day202.95714225
Epoch Year2019
RAAN181.226
Inclination51.6369
Eccentricity0.000208
Argument of Perigee215.1137
Mean Anonmoly144.9719
Mean Motion15.5825522
Decay Rate3.754E-05
L11 43638U 98067PN 19202.95714225 .00003754 00000-0 55178-4 0 9992
L22 43638 51.6369 181.2260 0002080 215.1137 144.9719 15.58255220 44903

Live tracking and technical data element details for 1998-067PN (NORAD 43638). 1998-067PN can be tracked NOW for your location showing map with azimuth and elevation plus other details from your city location.

Track the satellite on the map from your city or location and see movement details for azimuth, elevation, latitude, longitude, range, height, and movement on the map or in text.







IsCatalogInMostPopularTable: catalog: 43638, numindb: 163
Update: records affected: 1



GetName: 43638 1998-067PN

Hit Count: updated at: Mon, 22 Jul 2019 15:52:18 GMT